Time,TemperatureF,DewpointF,PressureIn,WindDirection,WindDirectionDegrees,WindSpeedMPH,WindSpeedGustMPH,Humidity,HourlyPrecipIn,Conditions,Clouds,dailyrainin,SoftwareType,DateUTC
2013-05-07 00:03:00,51.0,-99.9,30.09,East,92,13.0,19.0,-999,-99.99,,,-99.99,,2013-05-07 04:03:00,
2013-05-07 00:12:00,51.0,-99.9,30.09,East,88,11.0,18.0,-999,-99.99,,,-99.99,,2013-05-07 04:12:00,
2013-05-07 00:23:00,52.0,-99.9,30.09,East,87,11.0,17.0,-999,-99.99,,,-99.99,,2013-05-07 04:23:00,
2013-05-07 00:33:00,52.0,-99.9,30.09,East,87,8.0,15.0,-999,-99.99,,,-99.99,,2013-05-07 04:33:00,
2013-05-07 00:42:00,52.0,-99.9,30.09,East,87,9.0,18.0,-999,-99.99,,,-99.99,,2013-05-07 04:42:00,
2013-05-07 00:53:00,52.0,-99.9,30.09,East,81,9.0,15.0,-999,-99.99,,,-99.99,,2013-05-07 04:53:00,
2013-05-07 01:02:00,52.0,-99.9,30.08,East,83,8.0,13.0,-999,-99.99,,,-99.99,,2013-05-07 05:02:00,
2013-05-07 01:12:00,52.0,-99.9,30.08,East,85,10.0,14.0,-999,-99.99,,,-99.99,,2013-05-07 05:12:00,
2013-05-07 01:22:00,52.0,-99.9,30.07,East,86,10.0,14.0,-999,-99.99,,,-99.99,,2013-05-07 05:22:00,
2013-05-07 01:32:00,52.0,-99.9,30.07,East,84,8.0,15.0,-999,-99.99,,,-99.99,,2013-05-07 05:32:00,
2013-05-07 01:43:00,52.0,-99.9,30.07,East,85,10.0,15.0,-999,-99.99,,,-99.99,,2013-05-07 05:43:00,
2013-05-07 01:52:00,52.0,-99.9,30.07,East,83,7.0,10.0,-999,-99.99,,,-99.99,,2013-05-07 05:52:00,
2013-05-07 02:02:00,52.0,-99.9,30.07,East,84,8.0,14.0,-999,-99.99,,,-99.99,,2013-05-07 06:02:00,
2013-05-07 02:12:00,52.0,-99.9,30.06,East,83,11.0,16.0,-999,-99.99,,,-99.99,,2013-05-07 06:12:00,
2013-05-07 02:22:00,52.0,-99.9,30.06,East,80,8.0,13.0,-999,-99.99,,,-99.99,,2013-05-07 06:22:00,
2013-05-07 02:32:00,52.0,-99.9,30.06,East,81,9.0,14.0,-999,-99.99,,,-99.99,,2013-05-07 06:32:00,
2013-05-07 02:42:00,52.0,-99.9,30.05,East,81,8.0,13.0,-999,-99.99,,,-99.99,,2013-05-07 06:42:00,
2013-05-07 02:52:00,52.0,-99.9,30.05,East,79,8.0,14.0,-999,-99.99,,,-99.99,,2013-05-07 06:52:00,
2013-05-07 03:02:00,52.0,-99.9,30.05,East,85,8.0,12.0,-999,-99.99,,,-99.99,,2013-05-07 07:02:00,
2013-05-07 03:11:00,52.0,-99.9,30.04,East,81,7.0,15.0,-999,-99.99,,,-99.99,,2013-05-07 07:11:00,
2013-05-07 03:22:00,53.0,-99.9,30.04,East,83,8.0,13.0,-999,-99.99,,,-99.99,,2013-05-07 07:22:00,
2013-05-07 03:32:00,53.0,-99.9,30.04,East,81,9.0,15.0,-999,-99.99,,,-99.99,,2013-05-07 07:32:00,
2013-05-07 03:42:00,53.0,-99.9,30.04,East,81,8.0,14.0,-999,-99.99,,,-99.99,,2013-05-07 07:42:00,
2013-05-07 03:53:00,53.0,-99.9,30.03,East,85,8.0,15.0,-999,-99.99,,,-99.99,,2013-05-07 07:53:00,
2013-05-07 04:02:00,53.0,-99.9,30.03,East,80,9.0,15.0,-999,-99.99,,,-99.99,,2013-05-07 08:02:00,
2013-05-07 04:11:00,53.0,-99.9,30.03,East,82,7.0,13.0,-999,-99.99,,,-99.99,,2013-05-07 08:11:00,
2013-05-07 04:22:00,53.0,-99.9,30.03,East,85,9.0,15.0,-999,-99.99,,,-99.99,,2013-05-07 08:22:00,
2013-05-07 04:32:00,53.0,-99.9,30.03,East,80,6.0,10.0,-999,-99.99,,,-99.99,,2013-05-07 08:32:00,
2013-05-07 04:42:00,54.0,-99.9,30.03,East,80,8.0,13.0,-999,-99.99,,,-99.99,,2013-05-07 08:42:00,
2013-05-07 04:52:00,54.0,-99.9,30.03,East,82,7.0,12.0,-999,-99.99,,,-99.99,,2013-05-07 08:52:00,
2013-05-07 05:02:00,54.0,-99.9,30.03,East,84,8.0,15.0,-999,-99.99,,,-99.99,,2013-05-07 09:02:00,
2013-05-07 05:12:00,53.0,-99.9,30.03,East,82,9.0,15.0,-999,-99.99,,,-99.99,,2013-05-07 09:12:00,
2013-05-07 05:23:00,53.0,-99.9,30.03,East,80,10.0,16.0,-999,-99.99,,,-99.99,,2013-05-07 09:23:00,
2013-05-07 05:33:00,53.0,-99.9,30.03,East,85,10.0,18.0,-999,-99.99,,,-99.99,,2013-05-07 09:33:00,
2013-05-07 05:43:00,53.0,-99.9,30.03,ENE,76,6.0,12.0,-999,-99.99,,,-99.99,,2013-05-07 09:43:00,
2013-05-07 05:53:00,53.0,-99.9,30.03,ENE,77,6.0,12.0,-999,-99.99,,,-99.99,,2013-05-07 09:53:00,
2013-05-07 06:03:00,53.0,-99.9,30.03,East,82,7.0,13.0,-999,-99.99,,,-99.99,,2013-05-07 10:03:00,
2013-05-07 06:13:00,53.0,-99.9,30.03,ENE,77,10.0,20.0,-999,-99.99,,,-99.99,,2013-05-07 10:13:00,
2013-05-07 06:23:00,53.0,-99.9,30.03,ENE,77,9.0,17.0,-999,-99.99,,,-99.99,,2013-05-07 10:23:00,
2013-05-07 06:33:00,53.0,-99.9,30.03,East,81,8.0,18.0,-999,-99.99,,,-99.99,,2013-05-07 10:33:00,
2013-05-07 06:42:00,53.0,-99.9,30.03,East,82,8.0,16.0,-999,-99.99,,,-99.99,,2013-05-07 10:42:00,
2013-05-07 06:52:00,53.0,-99.9,30.04,East,85,9.0,19.0,-999,-99.99,,,-99.99,,2013-05-07 10:52:00,
2013-05-07 07:03:00,53.0,-99.9,30.04,East,81,9.0,16.0,-999,-99.99,,,-99.99,,2013-05-07 11:03:00,
2013-05-07 07:12:00,53.0,-99.9,30.04,East,80,8.0,14.0,-999,-99.99,,,-99.99,,2013-05-07 11:12:00,
2013-05-07 07:22:00,53.0,-99.9,30.04,East,81,8.0,16.0,-999,-99.99,,,-99.99,,2013-05-07 11:22:00,
2013-05-07 07:32:00,53.0,-99.9,30.04,East,80,12.0,19.0,-999,-99.99,,,-99.99,,2013-05-07 11:32:00,
2013-05-07 07:42:00,53.0,-99.9,30.04,ENE,76,7.0,16.0,-999,-99.99,,,-99.99,,2013-05-07 11:42:00,
2013-05-07 07:52:00,54.0,-99.9,30.04,ENE,76,7.0,13.0,-999,-99.99,,,-99.99,,2013-05-07 11:52:00,
2013-05-07 08:02:00,54.0,-99.9,30.05,East,85,10.0,18.0,-999,-99.99,,,-99.99,,2013-05-07 12:02:00,
2013-05-07 08:12:00,54.0,-99.9,30.04,ENE,77,7.0,15.0,-999,-99.99,,,-99.99,,2013-05-07 12:12:00,
2013-05-07 08:22:00,54.0,-99.9,30.04,East,80,10.0,15.0,-999,-99.99,,,-99.99,,2013-05-07 12:22:00,
2013-05-07 08:32:00,54.0,-99.9,30.05,East,79,9.0,16.0,-999,-99.99,,,-99.99,,2013-05-07 12:32:00,
2013-05-07 08:42:00,55.0,-99.9,30.05,ENE,78,9.0,17.0,-999,-99.99,,,-99.99,,2013-05-07 12:42:00,
2013-05-07 08:52:00,55.0,-99.9,30.05,East,79,6.0,13.0,-999,-99.99,,,-99.99,,2013-05-07 12:52:00,
2013-05-07 09:02:00,54.0,-99.9,30.05,ENE,78,11.0,21.0,-999,-99.99,,,-99.99,,2013-05-07 13:02:00,
2013-05-07 09:11:00,55.0,-99.9,30.06,East,80,8.0,14.0,-999,-99.99,,,-99.99,,2013-05-07 13:11:00,
2013-05-07 09:22:00,55.0,-99.9,30.06,East,81,12.0,19.0,-999,-99.99,,,-99.99,,2013-05-07 13:22:00,
2013-05-07 09:32:00,55.0,-99.9,30.06,East,84,11.0,17.0,-999,-99.99,,,-99.99,,2013-05-07 13:32:00,
2013-05-07 09:42:00,55.0,-99.9,30.05,East,85,13.0,21.0,-999,-99.99,,,-99.99,,2013-05-07 13:42:00,
2013-05-07 09:52:00,55.0,-99.9,30.05,East,81,13.0,22.0,-999,-99.99,,,-99.99,,2013-05-07 13:52:00,
2013-05-07 10:02:00,55.0,-99.9,30.05,East,87,16.0,27.0,-999,-99.99,,,-99.99,,2013-05-07 14:02:00,
2013-05-07 10:11:00,56.0,-99.9,30.04,ENE,78,9.0,20.0,-999,-99.99,,,-99.99,,2013-05-07 14:11:00,
2013-05-07 10:22:00,56.0,-99.9,30.05,East,87,12.0,21.0,-999,-99.99,,,-99.99,,2013-05-07 14:22:00,
2013-05-07 10:32:00,56.0,-99.9,30.05,ENE,74,8.0,17.0,-999,-99.99,,,-99.99,,2013-05-07 14:32:00,
2013-05-07 10:42:00,56.0,-99.9,30.05,ENE,74,9.0,20.0,-999,-99.99,,,-99.99,,2013-05-07 14:42:00,
2013-05-07 10:52:00,56.0,-99.9,30.06,East,80,11.0,19.0,-999,-99.99,,,-99.99,,2013-05-07 14:52:00,
2013-05-07 11:01:00,56.0,-99.9,30.05,ENE,76,9.0,18.0,-999,-99.99,,,-99.99,,2013-05-07 15:01:00,
2013-05-07 11:12:00,56.0,-99.9,30.06,ENE,78,10.0,15.0,-999,-99.99,,,-99.99,,2013-05-07 15:12:00,
2013-05-07 11:22:00,56.0,-99.9,30.06,East,86,15.0,22.0,-999,-99.99,,,-99.99,,2013-05-07 15:22:00,
2013-05-07 11:33:00,56.0,-99.9,30.06,East,85,10.0,13.0,-999,-99.99,,,-99.99,,2013-05-07 15:33:00,
2013-05-07 11:43:00,55.0,-99.9,30.06,East,82,15.0,22.0,-999,-99.99,,,-99.99,,2013-05-07 15:43:00,
2013-05-07 11:53:00,55.0,-99.9,30.05,East,82,13.0,19.0,-999,-99.99,,,-99.99,,2013-05-07 15:53:00,
2013-05-07 12:03:00,55.0,-99.9,30.05,ENE,78,14.0,22.0,-999,-99.99,,,-99.99,,2013-05-07 16:03:00,
2013-05-07 12:12:00,55.0,-99.9,30.05,East,86,13.0,20.0,-999,-99.99,,,-99.99,,2013-05-07 16:12:00,
2013-05-07 12:22:00,55.0,-99.9,30.05,East,86,14.0,20.0,-999,-99.99,,,-99.99,,2013-05-07 16:22:00,
2013-05-07 12:32:00,56.0,-99.9,30.05,East,94,12.0,17.0,-999,-99.99,,,-99.99,,2013-05-07 16:32:00,
2013-05-07 12:42:00,56.0,-99.9,30.05,East,83,12.0,21.0,-999,-99.99,,,-99.99,,2013-05-07 16:42:00,
2013-05-07 12:52:00,56.0,-99.9,30.05,East,88,14.0,20.0,-999,-99.99,,,-99.99,,2013-05-07 16:52:00,
2013-05-07 13:01:00,56.0,-99.9,30.04,East,86,10.0,18.0,-999,-99.99,,,-99.99,,2013-05-07 17:01:00,
2013-05-07 13:12:00,56.0,-99.9,30.04,East,89,13.0,20.0,-999,-99.99,,,-99.99,,2013-05-07 17:12:00,
2013-05-07 13:21:00,56.0,-99.9,30.04,East,92,11.0,17.0,-999,-99.99,,,-99.99,,2013-05-07 17:21:00,
2013-05-07 13:32:00,56.0,-99.9,30.03,East,80,14.0,23.0,-999,-99.99,,,-99.99,,2013-05-07 17:32:00,
2013-05-07 13:41:00,57.0,-99.9,30.04,East,81,10.0,19.0,-999,-99.99,,,-99.99,,2013-05-07 17:41:00,
2013-05-07 13:53:00,57.0,-99.9,30.04,East,79,12.0,19.0,-999,-99.99,,,-99.99,,2013-05-07 17:53:00,
2013-05-07 14:01:00,57.0,-99.9,30.04,East,85,12.0,21.0,-999,-99.99,,,-99.99,,2013-05-07 18:01:00,
2013-05-07 14:11:00,57.0,-99.9,30.04,ENE,78,13.0,25.0,-999,-99.99,,,-99.99,,2013-05-07 18:11:00,
2013-05-07 14:21:00,57.0,-99.9,30.03,East,83,12.0,21.0,-999,-99.99,,,-99.99,,2013-05-07 18:21:00,
2013-05-07 14:32:00,57.0,-99.9,30.03,East,81,11.0,22.0,-999,-99.99,,,-99.99,,2013-05-07 18:32:00,
2013-05-07 14:42:00,58.0,-99.9,30.03,East,85,13.0,19.0,-999,-99.99,,,-99.99,,2013-05-07 18:42:00,
2013-05-07 14:52:00,58.0,-99.9,30.02,ENE,77,13.0,21.0,-999,-99.99,,,-99.99,,2013-05-07 18:52:00,
2013-05-07 15:02:00,58.0,-99.9,30.02,ENE,78,17.0,26.0,-999,-99.99,,,-99.99,,2013-05-07 19:02:00,
2013-05-07 15:11:00,57.0,-99.9,30.02,East,79,16.0,21.0,-999,-99.99,,,-99.99,,2013-05-07 19:11:00,
2013-05-07 15:22:00,57.0,-99.9,30.02,East,92,12.0,20.0,-999,-99.99,,,-99.99,,2013-05-07 19:22:00,
2013-05-07 15:32:00,57.0,-99.9,30.01,East,87,10.0,16.0,-999,-99.99,,,-99.99,,2013-05-07 19:32:00,
2013-05-07 15:42:00,57.0,-99.9,30.01,East,82,13.0,19.0,-999,-99.99,,,-99.99,,2013-05-07 19:42:00,
2013-05-07 15:52:00,56.0,-99.9,30.01,East,87,15.0,24.0,-999,-99.99,,,-99.99,,2013-05-07 19:52:00,
2013-05-07 16:02:00,57.0,-99.9,30.01,East,83,11.0,16.0,-999,-99.99,,,-99.99,,2013-05-07 20:02:00,
2013-05-07 16:12:00,57.0,-99.9,30.01,East,79,14.0,22.0,-999,-99.99,,,-99.99,,2013-05-07 20:12:00,
2013-05-07 16:22:00,57.0,-99.9,30.00,East,80,13.0,19.0,-999,-99.99,,,-99.99,,2013-05-07 20:22:00,
2013-05-07 16:32:00,57.0,-99.9,30.00,East,82,10.0,18.0,-999,-99.99,,,-99.99,,2013-05-07 20:32:00,
2013-05-07 16:42:00,57.0,-99.9,29.99,East,82,10.0,16.0,-999,-99.99,,,-99.99,,2013-05-07 20:42:00,
2013-05-07 16:52:00,57.0,-99.9,29.99,East,81,11.0,19.0,-999,-99.99,,,-99.99,,2013-05-07 20:52:00,
2013-05-07 17:02:00,57.0,-99.9,29.98,East,79,9.0,15.0,-999,-99.99,,,-99.99,,2013-05-07 21:02:00,
2013-05-07 17:11:00,57.0,-99.9,29.98,East,82,12.0,18.0,-999,-99.99,,,-99.99,,2013-05-07 21:11:00,
2013-05-07 17:22:00,58.0,-99.9,29.98,East,81,11.0,18.0,-999,-99.99,,,-99.99,,2013-05-07 21:22:00,
2013-05-07 17:33:00,57.0,-99.9,29.98,East,89,8.0,12.0,-999,-99.99,,,-99.99,,2013-05-07 21:33:00,
2013-05-07 17:43:00,58.0,-99.9,29.98,East,82,10.0,16.0,-999,-99.99,,,-99.99,,2013-05-07 21:43:00,
2013-05-07 17:53:00,58.0,-99.9,29.97,ENE,76,9.0,16.0,-999,-99.99,,,-99.99,,2013-05-07 21:53:00,
2013-05-07 18:02:00,58.0,-99.9,29.98,East,83,9.0,16.0,-999,-99.99,,,-99.99,,2013-05-07 22:02:00,
2013-05-07 18:13:00,58.0,-99.9,29.98,East,81,12.0,20.0,-999,-99.99,,,-99.99,,2013-05-07 22:13:00,
2013-05-07 18:23:00,58.0,-99.9,29.97,East,80,9.0,18.0,-999,-99.99,,,-99.99,,2013-05-07 22:23:00,
2013-05-07 18:33:00,58.0,-99.9,29.98,ENE,76,13.0,19.0,-999,-99.99,,,-99.99,,2013-05-07 22:33:00,
2013-05-07 18:42:00,58.0,-99.9,29.97,ENE,77,11.0,20.0,-999,-99.99,,,-99.99,,2013-05-07 22:42:00,
2013-05-07 18:52:00,58.0,-99.9,29.97,East,85,11.0,18.0,-999,-99.99,,,-99.99,,2013-05-07 22:52:00,
2013-05-07 19:02:00,58.0,-99.9,29.97,East,83,12.0,20.0,-999,-99.99,,,-99.99,,2013-05-07 23:02:00,
2013-05-07 19:12:00,59.0,-99.9,29.97,East,87,10.0,19.0,-999,-99.99,,,-99.99,,2013-05-07 23:12:00,
2013-05-07 19:22:00,58.0,-99.9,29.98,East,87,12.0,18.0,-999,-99.99,,,-99.99,,2013-05-07 23:22:00,
2013-05-07 19:32:00,58.0,-99.9,29.98,East,88,11.0,18.0,-999,-99.99,,,-99.99,,2013-05-07 23:32:00,
2013-05-07 19:42:00,58.0,-99.9,29.98,East,84,11.0,17.0,-999,-99.99,,,-99.99,,2013-05-07 23:42:00,
2013-05-07 19:52:00,58.0,-99.9,29.98,East,84,11.0,17.0,-999,-99.99,,,-99.99,,2013-05-07 23:52:00,
2013-05-07 20:02:00,58.0,-99.9,29.98,East,86,10.0,17.0,-999,-99.99,,,-99.99,,2013-05-08 00:02:00,
2013-05-07 20:12:00,57.0,-99.9,29.98,East,89,9.0,15.0,-999,-99.99,,,-99.99,,2013-05-08 00:12:00,
2013-05-07 20:22:00,58.0,-99.9,29.99,East,92,10.0,16.0,-999,-99.99,,,-99.99,,2013-05-08 00:22:00,
2013-05-07 20:32:00,58.0,-99.9,29.98,East,100,10.0,15.0,-999,-99.99,,,-99.99,,2013-05-08 00:32:00,
2013-05-07 20:42:00,59.0,-99.9,29.98,East,96,15.0,24.0,-999,-99.99,,,-99.99,,2013-05-08 00:42:00,
2013-05-07 20:52:00,60.0,-99.9,29.98,East,90,13.0,17.0,-999,-99.99,,,-99.99,,2013-05-08 00:52:00,
2013-05-07 21:02:00,60.0,-99.9,29.98,East,91,13.0,20.0,-999,-99.99,,,-99.99,,2013-05-08 01:02:00,
2013-05-07 21:12:00,60.0,-99.9,29.96,ENE,78,11.0,19.0,-999,-99.99,,,-99.99,,2013-05-08 01:12:00,
2013-05-07 21:22:00,60.0,-99.9,29.97,East,84,12.0,21.0,-999,-99.99,,,-99.99,,2013-05-08 01:22:00,
2013-05-07 21:32:00,60.0,-99.9,29.99,ESE,119,13.0,16.0,-999,-99.99,,,-99.99,,2013-05-08 01:32:00,
2013-05-07 21:42:00,59.0,-99.9,30.01,ESE,118,13.0,19.0,-999,-99.99,,,-99.99,,2013-05-08 01:42:00,
2013-05-07 21:52:00,58.0,-99.9,30.02,ESE,113,12.0,17.0,-999,-99.99,,,-99.99,,2013-05-08 01:52:00,
2013-05-07 22:02:00,57.0,-99.9,30.02,East,100,8.0,15.0,-999,-99.99,,,-99.99,,2013-05-08 02:02:00,
2013-05-07 22:12:00,57.0,-99.9,30.03,ESE,121,11.0,15.0,-999,-99.99,,,-99.99,,2013-05-08 02:12:00,
2013-05-07 22:22:00,56.0,-99.9,30.02,ESE,103,7.0,10.0,-999,-99.99,,,-99.99,,2013-05-08 02:22:00,
2013-05-07 22:32:00,56.0,-99.9,30.01,East,95,6.0,10.0,-999,-99.99,,,-99.99,,2013-05-08 02:32:00,
2013-05-07 22:42:00,56.0,-99.9,30.01,ESE,115,5.0,9.0,-999,-99.99,,,-99.99,,2013-05-08 02:42:00,
2013-05-07 22:52:00,56.0,-99.9,30.01,East,86,5.0,9.0,-999,-99.99,,,-99.99,,2013-05-08 02:52:00,
2013-05-07 23:02:00,56.0,-99.9,30.00,East,93,7.0,12.0,-999,-99.99,,,-99.99,,2013-05-08 03:02:00,
2013-05-07 23:11:00,56.0,-99.9,30.00,East,91,7.0,11.0,-999,-99.99,,,-99.99,,2013-05-08 03:11:00,
2013-05-07 23:22:00,56.0,-99.9,30.00,ESE,122,6.0,9.0,-999,-99.99,,,-99.99,,2013-05-08 03:22:00,
2013-05-07 23:33:00,56.0,-99.9,30.00,East,92,6.0,10.0,-999,-99.99,,,-99.99,,2013-05-08 03:33:00,
2013-05-07 23:43:00,56.0,-99.9,29.99,ESE,103,4.0,6.0,-999,-99.99,,,-99.99,,2013-05-08 03:43:00,
2013-05-07 23:53:00,56.0,-99.9,29.99,East,90,5.0,8.0,-999,-99.99,,,-99.99,,2013-05-08 03:53:00,